sat.trackr.live / text

‹ back to catalog

SES-11 (ECHOSTAR 105)

NORAD 42967 · 2017-063A

PAYLOAD ACTIVE UNKNOWN

§ Identity

Operator
Country
SES
Launch date
2017-10-11
Launch site
AFETR
Launch vehicle
Mass (kg)
RCS (m²)

Purposes: comms

External: N2YO · Heavens-Above · Gunter

§ Orbital elements

Epoch: 2026-09-09T03:58:10.096896Z

Period
1,436.09 min
Inclination
0.0536°
Eccentricity
0.0002970
Mean motion
1.00272005 rev/d
Perigee alt
35,774.0 km
Apogee alt
35,799.1 km
Semi-major
42,164.7 km
B*
0.0000e+0
RAAN
297.2880°
Arg perigee
225.2305°
Mean anomaly
140.2919°
Rev number
3,256

§ Raw data

SES-11 (ECHOSTAR 105)1 42967U 17063A   26252.16539464 -.00000111  00000+0  00000+0 0  99922 42967   0.0536 297.2880 0002970 225.2305 140.2919  1.00272005 32566

JSON: /api/v1/satellites/42967 · /tle

For live sub-satellite position, see the globe view (requires WebGL).

§ Visibility from observer

Set your observer location to see the next 7 days of passes ≥ 10°. The values pass through the URL so the page stays shareable.

No JS? Fill the form by hand. The geolocation button needs JavaScript.